Showing default

GALILEO 16 (26C), 41860

Orbit data source: Space-Track

GALILEO 16 (26C), 41860 is a payload satellite owned by GNSS Agency (ESA) that was launched on Thu, 17 Nov 2016 UTC via an ARIANE 5ES launch vehicle from the French Guiana (FRGUI). Payload-class satellites include a variety of spacecraft equipped with specific instruments for various scientific and technological missions. These include communications satellites like Starlink; space stations such as the ISS; scientific satellites like the Hubble; Earth observation satellites from companies like Planet Labs, Umbra, and HawkEye 360; GPS; miniature CubeSats for education and research; and military/defense satellites.

Loading next visibility...
Identifier
41860, 2016-069B
Orbit
Active
Country
Flag of ESAESA
Related business
Manufacturer
OHB
Mission
Operational Civil Navigation
Bus & Motor
GALILEOSAT, AOCS
Mass
738 kg wet, 700 kg dry
Launch date (UTC)
2016-11-17 (10 years ago)
Launch vehicle
ARIANE 5ES
Launch site
French Guiana (FRGUI)
Object type
Payload
Rocket body
Debris
Shape & HBR
Box + 2 Pan, 7.3 m
Radar Cross Section
9.223 m², Large (>1 m²)

Expand to show TLE details & history
Last TLE update: 3 days ago

TLE from 3 days ago
0 GALILEO 16 (26C)
1 41860U 16069B   26253.24052515  .00000019  00000-0  00000+0 0  9992
2 41860  55.5502  98.7259 0003965  39.3601 320.7650  1.70473888 61105
Epoch: 2026-09-10T05:46Z
TLE epoch observation values (Epoch: 2026-09-10T05:46:21.372Z)
Latitude
0.00005°
Longitude
22.86874°
Altitude
23,213.407 km
Speed
3.671 km/s
True Right ascension
06h 34m 57s
True Declination
0° 00' 00"
Sunlit
Object was in daylight at epoch
Visualization orbit readout
Latitude
Unknown
Longitude
Unknown
Altitude
Unknown
Speed
Unknown
Apparent Right ascension
Unknown
Apparent Declination
Unknown
Sunlit
N/A
Visualization observer readout
Local Sidereal Time
07:04:49
Azimuth
Unknown
Elevation
Unknown
Doppler factor
Unknown
Orbital elements
Apogee altitude
23,233.921 km
Perigee altitude
23,210.448 km
Semi-major axis
29,600.321 km
Eccentricity
0.0004
Inclination
55.5502°
RAAN
98.7259°
Arg. of periapsis
39.3601°
True anomaly
320.73625°
Mean anomaly
320.765°
Eccentric anomaly
320.75063°
Mean motion
0.42619 °/min
Orbital period
844.7 mins
BSTAR
0
Loading maneuver chart data...
Computing Atmospheric mass density...
Loading historical data...
Loading historical data...
Loading historical data...
Loading historical data...
Loading historical data...
Loading historical data...
Loading historical data...
Other satellites on launch #69 in the year 2016 (2016-11-17 UTC)

Documentation

Showing up to 5 results
|